This demonstration page uses our WeatherBlox Daily Observations layout. Learn more.

Left ArrowRight Arrow

39.51506, -84.39828

Hourly Observations for August 17, 2016

Temp ( °F °C ) Dew Point ( °F °C ) Humidity (%) Winds ( mph kmh ) Pressure ( in mb ) Visibility ( mi km ) Precip ( " mm )
12:15 am 00:15 Partly Cloudy 74 23.6 70 21 85 85 SSW 3 6 30.15 1021 10 16 N/A
12:35 am 00:35 Mostly Cloudy with Drizzle 74 23.6 70 20.9 85 85 SSW 3 6 30.15 1021 10 16 N/A
12:55 am 00:55 Mostly Cloudy with Rain 74 23.6 70 21 85 85 SSW 3 6 30.15 1021 10 16 N/A
1:15 am 01:15 Partly Cloudy with Light Rain 74 23.6 70 21 85 85 N N/A 30.15 1021 10 16 N/A
1:35 am 01:35 Mostly Cloudy with Drizzle 74 23.6 70 21 85 85 SSW 3 6 30.15 1021 10 16 N/A
1:55 am 01:55 Cloudy with Drizzle 74 23.6 70 21 85 85 N N/A 30.15 1021 10 16 N/A
2:15 am 02:15 Cloudy with Light Rain 74 23.6 70 21 85 85 SSW 5 7 30.15 1021 7 11 N/A
2:35 am 02:35 Cloudy with Rain 74 23.6 70 21 85 85 N N/A 30.15 1021 10 16 N/A
2:55 am 02:55 Cloudy with Drizzle 74 23.6 70 21 85 85 SSW 3 6 30.15 1021 10 16 N/A
3:15 am 03:15 Cloudy with Drizzle 74 23.6 70 21 85 85 N N/A 30.15 1021 10 16 N/A
3:35 am 03:35 Mostly Cloudy with Drizzle 74 23.6 70 21 85 85 N N/A 30.12 1020 10 16 N/A
3:55 am 03:55 Cloudy with Drizzle 74 23.6 70 21 85 85 N N/A 30.12 1020 10 16 N/A
4:15 am 04:15 Cloudy with Drizzle 74 23.6 70 21 85 85 N N/A 30.12 1020 10 16 N/A
4:35 am 04:35 Cloudy with Drizzle 74 23.6 70 21 85 85 N N/A 30.12 1020 10 16 N/A
4:55 am 04:55 Mostly Cloudy with Drizzle 74 23.6 69 20.6 83 83 N N/A 30.12 1020 10 16 N/A
5:15 am 05:15 Cloudy 74 23.6 69 20.5 83 83 N N/A 30.12 1020 10 16 N/A
5:35 am 05:35 Cloudy 74 23.6 69 20.5 83 83 N N/A 30.12 1020 10 16 N/A
5:55 am 05:55 Cloudy with Drizzle 74 23.6 69 20.7 84 84 N N/A 30.12 1020 7 11 N/A
6:15 am 06:15 Cloudy with Drizzle 72 22.3 67 19.3 83 83 N N/A 30.12 1020 7 11 N/A
6:35 am 06:35 Cloudy 72 22.4 67 19.7 85 85 N N/A 30.12 1020 10 16 N/A
6:55 am 06:55 Cloudy with Light Rain 72 22.3 67 19.6 85 85 SW 3 6 30.12 1020 7 11 N/A
7:15 am 07:15 Cloudy with Light Rain 73 22.7 68 20 85 85 N N/A 30.12 1020 10 16 N/A
7:35 am 07:35 Cloudy with Rain 72 22.3 67 19.6 85 85 N N/A 30.12 1020 7 11 N/A
7:55 am 07:55 Cloudy with Drizzle 73 23 69 20.3 85 85 N N/A 30.15 1021 10 16 N/A
8:15 am 08:15 Cloudy with Drizzle 74 23.6 69 20.8 84 84 N N/A 30.15 1021 10 16 N/A
8:35 am 08:35 Cloudy with Rain 74 23.6 70 20.9 85 85 N N/A 30.15 1021 7 11 N/A
8:55 am 08:55 Cloudy with Drizzle 74 23.6 70 21 85 85 N N/A 30.12 1020 10 16 N/A
9:15 am 09:15 Cloudy with Drizzle 74 23.6 70 21 85 85 N N/A 30.15 1021 10 16 N/A
9:35 am 09:35 Cloudy with Drizzle 74 23.6 70 21 85 85 N N/A 30.15 1021 10 16 N/A
9:55 am 09:55 Cloudy with Rain 74 23.6 70 21 85 85 N N/A 30.12 1020 4 6 N/A
10:15 am 10:15 Cloudy 74 23.6 70 21 85 85 N N/A 30.15 1021 10 16 N/A
10:35 am 10:35 Cloudy 74 23.6 70 21 85 85 N N/A 30.15 1021 10 16 N/A
10:55 am 10:55 Cloudy 74 23.6 69 20.5 83 83 N N/A 30.15 1021 10 16 N/A
11:15 am 11:15 Cloudy 74 23.6 69 20.3 82 82 N N/A 30.15 1021 10 16 N/A
11:35 am 11:35 Cloudy 74 23.6 68 20.1 81 81 N N/A 30.15 1021 10 16 N/A
11:55 am 11:55 Cloudy 77 25.1 70 20.9 78 78 N N/A 30.15 1021 10 16 N/A
12:15 pm 12:15 Mostly Cloudy 77 25.1 69 20.7 77 77 N N/A 30.12 1020 10 16 N/A
12:35 pm 12:35 Mostly Cloudy 77 25.1 69 20.6 76 76 W 5 7 30.12 1020 10 16 N/A
12:55 pm 12:55 Cloudy 77 25.1 68 20.1 74 74 WNW 6 9 30.12 1020 10 16 N/A
1:15 pm 13:15 Mostly Cloudy 79 26.3 68 20.1 69 69 N N/A 30.12 1020 10 16 N/A
1:35 pm 13:35 Partly Cloudy 80 26.5 69 20.4 69 69 NNW 3 6 30.09 1019 10 16 N/A
1:55 pm 13:55 Partly Cloudy 80 26.5 68 20.1 68 68 N 3 6 30.09 1019 10 16 N/A
2:15 pm 14:15 Partly Cloudy 80 26.8 67 19.7 65 65 N 3 6 30.09 1019 10 16 N/A
2:35 pm 14:35 Partly Cloudy 81 27.4 68 19.9 64 64 N N/A 30.06 1018 10 16 N/A
2:55 pm 14:55 Partly Cloudy 81 27.4 66 19.1 61 61 N N/A 30.06 1018 10 16 N/A
3:15 pm 15:15 Mostly Cloudy 82 28 67 19.5 60 60 N N/A 30.06 1018 10 16 N/A
3:35 pm 15:35 Partly Cloudy 82 28 67 19.2 59 59 W 3 6 30.06 1018 10 16 N/A
3:55 pm 15:55 Mostly Cloudy 82 27.6 65 18.6 58 58 N N/A 30.06 1018 10 16 N/A
4:15 pm 16:15 Partly Cloudy 83 28.1 66 19 58 58 N 5 7 30.06 1018 10 16 N/A
4:35 pm 16:35 Partly Cloudy 82 28 65 18.5 56 56 N N/A 30.06 1018 10 16 N/A
4:55 pm 16:55 Mostly Cloudy 82 28 66 19 58 58 NNW 7 11 30.06 1018 10 16 N/A
5:15 pm 17:15 Partly Cloudy 82 27.8 67 19.3 60 60 NW 6 9 30.06 1018 10 16 N/A
5:35 pm 17:35 Sunny 83 28.1 67 19.2 58 58 WNW 6 9 30.06 1018 10 16 N/A
5:55 pm 17:55 Sunny 82 28 67 19.3 59 59 N N/A 30.06 1018 10 16 N/A
6:15 pm 18:15 Sunny 82 28 67 19.2 59 59 W 5 7 30.06 1018 10 16 N/A
6:35 pm 18:35 Sunny 82 28 66 18.7 57 57 W 5 7 30.06 1018 10 16 N/A
6:55 pm 18:55 Sunny 82 27.9 67 19.4 60 60 W 5 7 30.06 1018 10 16 N/A
7:15 pm 19:15 Partly Cloudy 82 27.8 67 19.6 61 61 W 6 9 30.06 1018 10 16 N/A
7:35 pm 19:35 Sunny 80 26.6 66 19 63 63 W 5 7 30.06 1018 10 16 N/A
7:55 pm 19:55 Sunny 80 26.5 68 20.1 68 68 W 3 6 30.06 1018 10 16 N/A
8:15 pm 20:15 Sunny 77 25.2 68 20.1 73 73 N N/A 30.06 1018 10 16 N/A
8:35 pm 20:35 Clear 77 25.1 69 20.4 75 75 N N/A 30.06 1018 10 16 N/A
8:55 pm 20:55 Clear 77 25.1 70 21 78 78 N N/A 30.09 1019 10 16 N/A
9:15 pm 21:15 Clear 75 24 69 20.5 81 81 N N/A 30.09 1019 10 16 N/A
9:35 pm 21:35 Clear 74 23.6 69 20.4 82 82 N N/A 30.09 1019 10 16 N/A
9:55 pm 21:55 Clear 74 23.6 69 20.3 82 82 N N/A 30.09 1019 7 11 N/A
10:15 pm 22:15 Clear 74 23.6 69 20.5 83 83 N N/A 30.09 1019 10 16 N/A
10:35 pm 22:35 Clear 74 23.6 69 20.6 83 83 N N/A 30.09 1019 10 16 N/A
10:55 pm 22:55 Clear 74 23.6 69 20.6 83 83 N N/A 30.09 1019 7 11 N/A
11:15 pm 23:15 Clear 74 23.6 70 21 85 85 N N/A 30.09 1019 10 16 N/A
11:35 pm 23:35 Clear 74 23.6 69 20.8 84 84 N N/A 30.09 1019 7 11 N/A
11:55 pm 23:55 Clear 74 23.6 70 20.9 85 85 N N/A 30.09 1019 10 16 N/A

Powered by AerisWeather